Regional Weather Roundup
Issued by NWS Goodland, KS

Home | Current Version | Previous Version | Graphics & Text | Print | Product List | Glossary On
Versions: 1 2 3 4 5 6 7 8 9 10 11 12 13 14 15 16 17 18 19 20 21 22 23 24 25 26 27 28 29 30 31 32 33 34 35 36 37 38 39 40 41 42 43 44 45 46 47 48 49 50
000
ASUS43 KGLD 240708
RWRGLD

GOODLAND FORECAST AREA HOURLY WEATHER ROUNDUP
NATIONAL WEATHER SERVICE GOODLAND KS
100 AM MDT FRI OCT 24 2014

...OFFICIAL OBSERVATIONS...

CITY           SKY/WX    TMP DP  RH WIND       PRES   REMARKS
GOODLAND KS    PTCLDY    57  51  80 SW16      30.08R
HILL CITY KS   CLEAR     59  55  87 W7        30.04R
IMPERIAL NEB   MOCLDY    51  40  65 SW10      30.02S
MCCOOK NEB     PTCLDY    56  53  90 SW5       30.02S FOG
AKRON CO       PTCLDY    56  36  47 SW13      30.09S
BURLINGTON CO  CLEAR     54  48  80 SW10      30.10S
LIMON CO       PTCLDY    50  34  54 VRB3      30.17R
$$

...UNOFFICIAL OBSERVATIONS...

CITY           SKY/WX    TMP DP  RH WIND       PRES   REMARKS
GOVE KS          N/A     55  32  41 MISG        N/A
SHARON SPRINGS   N/A     54  52  92 SW8         N/A
KIT CARSON CO    N/A     46  42  86 CALM        N/A
YUMA CO          N/A     50  37  61 SW7         N/A
$$



USA.gov is the U.S. government's official web portal to all federal, state and local government web resources and services.